Location: Aytr�
(46.1357°N, 1.1145°W)
Time: 21:56:08
(UTC+00:00)

Nauka - Pass Details

Date: 21 September 2021
Orbit: 417 x 423 km, 51.6° (Epoch: 16 October)

Event Time Altitude Azimuth Distance (km) Brightness Sun altitude
Rises 19:34:15 0° 263° (W) 2,359 ? -16.2°
Reaches altitude 10° 19:36:25 10° 270° (W) 1,497 ? -16.6°
Maximum altitude 19:39:38 43° 344° (NNW) 603 ? -17.1°
Enters shadow 19:41:16 24° 42° (NE) 920 ? -17.4°
